La Crosse, WI

6:43 PM CST on December 17, 2017 (GMT -0600)
La Crosse Municipal

Weather History for KLSE - September, 2012

Change the Weather History Date:

Friday, September 7, 2012

  Actual Average Record
Temperature  
Mean Temperature 62 °F 66 °F  
Max Temperature 71 °F 77 °F 100 °F (1978)
Min Temperature 53 °F 56 °F 40 °F (1956)
Degree Days  
Heating Degree Days 3 2  
Month to date heating degree days 3 12  
Since 1 July heating degree days 12 32  
Cooling Degree Days 0 4  
Month to date cooling degree days 45 30  
Year to date cooling degree days 1067 730  
Growing Degree Days 13 (Base 50)    
Moisture  
Dew Point 54 °F    
Average Humidity 67    
Maximum Humidity 90    
Minimum Humidity 44    
Precipitation  
Precipitation 0.05 in 0.13 in 2.16 in (1941)
Month to date precipitation 0.41 0.86  
Year to date precipitation 19.40 24.82  
Snow  
Snow 0.00 in 0.00 in 0.00 in (2002)
Month to date snowfall 0.0 0.0  
Since 1 July snowfall 0.0 0.0  
Snow Depth 0.00 in    
Sea Level Pressure  
Sea Level Pressure 29.90 in    
Wind  
Wind Speed 8 mph (NNW)    
Max Wind Speed 22 mph    
Max Gust Speed 26 mph    
Visibility 10 miles    
Events Rain , Thunderstorm    
T = Trace of Precipitation, MM = Missing Value Source: NWS Daily Summary

Daily Weather History Graph

Daily Weather History Graph

Search for Another Location

Airport or City:

Trip Planner

Search our weather history database for the weather conditions in past years. The results will help you decide how hot, cold, wet, or windy it might be!

Date:

Astronomy

Sep. 07, 2012 Rise Set
Actual Time 6:35 AM CDT 7:29 PM CDT
Civil Twilight 6:06 AM CDT 7:58 PM CDT
Nautical Twilight 5:31 AM CDT 8:33 PM CDT
Astronomical Twilight 4:55 AM CDT 9:09 PM CDT
Moon 11:10 PM CDT (9/7) 1:42 PM CDT (9/7)
Length of Visible Light 13h 51m
Length of Day
12h 53m
Waning Gibbous, 58% of the Moon is Illuminated
Sep 7
Waning Gibbous
Sep 8
Last Quarter
Sep 15
New
Sep 22
First Quarter
Sep 29
Full

Hourly Weather History & Observations

Time (CDT) Temp. Dew Point Humidity Pressure Visibility Wind Dir Wind Speed Gust Speed Precip Events Conditions
12:53 AM 63.0 °F 55.0 °F 75% 29.86 in 10.0 mi SE 5.8 mph - N/A   Overcast
1:53 AM 61.0 °F 55.0 °F 81% 29.83 in 10.0 mi Calm Calm - N/A   Partly Cloudy
2:53 AM 62.1 °F 55.9 °F 80% 29.83 in 10.0 mi ESE 4.6 mph - N/A   Overcast
3:53 AM 64.0 °F 57.0 °F 78% 29.84 in 10.0 mi NNW 9.2 mph - N/A   Overcast
4:04 AM 64.4 °F 57.2 °F 77% 29.86 in 10.0 mi North 3.5 mph - N/A Thunderstorm Overcast
4:19 AM 62.6 °F 57.2 °F 82% 29.85 in 10.0 mi NNW 8.1 mph - N/A   Overcast
4:53 AM 64.9 °F 54.0 °F 68% 29.83 in 10.0 mi NNE 8.1 mph - N/A   Overcast
5:53 AM 62.1 °F 57.0 °F 84% 29.86 in 10.0 mi ESE 4.6 mph - 0.05 in   Mostly Cloudy
6:53 AM 61.0 °F 57.9 °F 90% 29.87 in 10.0 mi North 4.6 mph - N/A   Overcast
7:53 AM 62.1 °F 55.9 °F 80% 29.87 in 10.0 mi Calm Calm - N/A   Overcast
8:30 AM 62.6 °F 55.4 °F 77% 29.90 in 10.0 mi NNW 6.9 mph - 0.00 in Rain , Thunderstorm Light Rain
8:45 AM 62.6 °F 57.2 °F 82% 29.90 in 10.0 mi North 4.6 mph - 0.00 in Rain Light Rain
8:53 AM 62.1 °F 57.0 °F 84% 29.89 in 10.0 mi NNW 10.4 mph - 0.00 in   Mostly Cloudy
9:53 AM 62.1 °F 57.9 °F 86% 29.91 in 10.0 mi North 8.1 mph - 0.00 in   Overcast
10:53 AM 62.1 °F 55.9 °F 80% 29.92 in 10.0 mi NNE 5.8 mph - 0.00 in Rain Light Rain
11:53 AM 61.0 °F 55.9 °F 83% 29.92 in 10.0 mi North 4.6 mph - 0.00 in Rain Light Rain
12:18 PM 60.8 °F 55.4 °F 82% 29.93 in 10.0 mi North 6.9 mph - 0.00 in   Overcast
12:49 PM 60.8 °F 57.2 °F 88% 29.93 in 10.0 mi North 4.6 mph - 0.00 in   Overcast
12:53 PM 62.1 °F 57.0 °F 84% 29.92 in 10.0 mi NNW 6.9 mph - 0.00 in   Overcast
1:10 PM 62.6 °F 57.2 °F 82% 29.93 in 10.0 mi NNW 9.2 mph - N/A   Overcast
1:30 PM 62.6 °F 55.4 °F 77% 29.93 in 10.0 mi NNW 5.8 mph - N/A   Overcast
1:53 PM 64.0 °F 55.9 °F 75% 29.92 in 10.0 mi NNW 8.1 mph - N/A   Overcast
2:53 PM 66.0 °F 55.9 °F 70% 29.91 in 10.0 mi WNW 8.1 mph - N/A   Partly Cloudy
3:53 PM 68.0 °F 53.1 °F 59% 29.89 in 10.0 mi NW 8.1 mph - N/A   Mostly Cloudy
4:53 PM 71.1 °F 51.1 °F 49% 29.88 in 10.0 mi North 11.5 mph - N/A   Overcast
5:53 PM 70.0 °F 46.9 °F 44% 29.89 in 10.0 mi NW 16.1 mph - N/A   Partly Cloudy
6:53 PM 64.9 °F 46.9 °F 52% 29.91 in 10.0 mi NNW 16.1 mph 24.2 mph N/A   Mostly Cloudy
7:53 PM 61.0 °F 46.9 °F 60% 29.91 in 10.0 mi NNW 12.7 mph - N/A   Clear
8:53 PM 59.0 °F 46.9 °F 64% 29.94 in 10.0 mi North 10.4 mph - N/A   Clear
9:53 PM 57.9 °F 46.9 °F 67% 29.95 in 10.0 mi NNW 10.4 mph - N/A   Clear
10:53 PM 55.9 °F 46.9 °F 72% 29.96 in 10.0 mi NNW 10.4 mph - N/A   Clear
11:53 PM 55.0 °F 46.9 °F 74% 29.97 in 10.0 mi NNW 9.2 mph - N/A   Clear